Weather History for Lumberton, NC

Change the Weather History Date:

Friday, August 2, 2013

  Actual Average Record
Temperature  
Mean Temperature 81 °F 81 °F  
Max Temperature 89 °F 90 °F 98 °F (2011)
Min Temperature 73 °F 71 °F 64 °F (2001)
Degree Days  
Heating Degree Days 0 0  
Month to date heating degree days 0 0  
Since 1 June heating degree days 0 0  
Since 1 July heating degree days 0 0  
Cooling Degree Days 16 16  
Month to date cooling degree days 30 32  
Year to date cooling degree days 1117 1170  
Since 1 June cooling degree days 925 920  
Growing Degree Days 30 (Base 50)    
Moisture  
Dew Point 73 °F    
Average Humidity 82    
Maximum Humidity 100    
Minimum Humidity 63    
Precipitation  
Precipitation 0.00 in 0.18 in 1.46 in (2008)
Month to date precipitation T 0.36  
Year to date precipitation 30.82 25.25  
Sea Level Pressure  
Sea Level Pressure 29.98 in    
Wind  
Wind Speed 4 mph (SSW)    
Max Wind Speed 14 mph    
Max Gust Speed 16 mph    
Visibility 8 miles    
Events      
T = Trace of Precipitation, MM = Missing Value Source: NWS Daily Summary

Daily Weather History Graph

Daily Weather History Graph

Search for Another Location

Airport:

Trip Planner

Search our weather history database for the weather conditions in past years. The results will help you decide how hot, cold, wet, or windy it might be!

Date:

Astronomy

Aug. 02, 2013 Rise Set
Actual Time 6:27 AM EDT 8:17 PM EDT
Civil Twilight 5:59 AM EDT 8:44 PM EDT
Nautical Twilight 5:26 AM EDT 9:17 PM EDT
Astronomical Twilight 4:50 AM EDT 9:53 PM EDT
Moon 2:48 AM EDT (8/2) 5:11 PM EDT (8/2)
Length of Visible Light 14h 44m
Length of Day
13h 49m
Waning Crescent, 16% of the Moon is Illuminated
Aug 2
Waning Crescent
Aug 6
New
Aug 14
First Quarter
Aug 20
Full
Aug 28
Last Quarter

Hourly Weather History & Observations

Time (EDT) Temp. Heat Index Dew Point Humidity Pressure Visibility Wind Dir Wind Speed Gust Speed Precip Events Conditions
12:54 AM 75.0 °F - 73.0 °F 94% 29.96 in 5.0 mi Calm Calm - N/A   Partly Cloudy
1:54 AM 75.0 °F - 73.0 °F 94% 29.94 in 5.0 mi Calm Calm - N/A   Mostly Cloudy
2:54 AM 75.0 °F - 73.0 °F 94% 29.93 in 5.0 mi Calm Calm - N/A   Mostly Cloudy
3:54 AM 73.9 °F - 73.0 °F 97% 29.93 in 5.0 mi Calm Calm - N/A   Scattered Clouds
4:54 AM 73.0 °F - 72.0 °F 96% 29.92 in 4.0 mi Calm Calm - N/A   Clear
5:54 AM 73.9 °F - 72.0 °F 93% 29.94 in 5.0 mi Calm Calm - N/A   Partly Cloudy
6:02 AM 73.4 °F - 71.6 °F 94% 29.94 in 5.0 mi Calm Calm - N/A   Partly Cloudy
6:37 AM 73.4 °F - 71.6 °F 94% 29.96 in 5.0 mi Calm Calm - N/A   Mostly Cloudy
6:54 AM 73.9 °F - 73.0 °F 97% 29.96 in 5.0 mi West 3.5 mph - N/A   Overcast
7:31 AM 75.2 °F - 73.4 °F 94% 29.97 in 5.0 mi Calm Calm - N/A   Overcast
7:54 AM 75.0 °F - 73.0 °F 94% 29.98 in 5.0 mi Calm Calm - N/A   Overcast
8:54 AM 75.9 °F - 73.0 °F 91% 29.99 in 5.0 mi Calm Calm - N/A   Overcast
9:19 AM 77.0 °F - 73.4 °F 89% 30.01 in 7.0 mi Calm Calm - N/A   Overcast
9:54 AM 78.1 °F - 73.0 °F 84% 30.01 in - SE 3.5 mph - N/A   Overcast
10:02 AM 78.8 °F - 73.4 °F 83% 30.02 in - Calm Calm - N/A   Overcast
10:38 AM 80.6 °F 85.4 °F 73.4 °F 79% 30.02 in 9.0 mi Calm Calm - N/A   Overcast
10:54 AM 79.0 °F - 73.0 °F 82% 30.01 in 9.0 mi WSW 3.5 mph - N/A   Overcast
11:54 AM 81.0 °F 85.8 °F 73.0 °F 77% 30.01 in 10.0 mi Variable 4.6 mph - N/A   Overcast
12:54 PM 84.0 °F 91.2 °F 73.9 °F 72% 30.01 in 10.0 mi SSW 4.6 mph - N/A   Mostly Cloudy
1:29 PM 86.0 °F 93.4 °F 73.4 °F 66% 30.01 in 10.0 mi WSW 5.8 mph - N/A   Scattered Clouds
1:54 PM 86.0 °F 93.8 °F 73.9 °F 67% 30.00 in 10.0 mi SW 8.1 mph - N/A   Scattered Clouds
2:54 PM 87.1 °F 95.4 °F 73.9 °F 65% 29.98 in 10.0 mi SSW 8.1 mph - N/A   Scattered Clouds
3:54 PM 87.1 °F 95.4 °F 73.9 °F 65% 29.98 in 10.0 mi SSW 8.1 mph - N/A   Partly Cloudy
4:54 PM 87.1 °F 95.4 °F 73.9 °F 65% 29.97 in 10.0 mi SSW 8.1 mph - N/A   Partly Cloudy
5:54 PM 87.1 °F 95.4 °F 73.9 °F 65% 29.97 in 10.0 mi SSW 5.8 mph - N/A   Clear
6:54 PM 84.9 °F 91.4 °F 73.0 °F 67% 29.97 in 10.0 mi SW 6.9 mph - N/A   Clear
7:54 PM 82.9 °F 89.4 °F 73.9 °F 74% 29.99 in 10.0 mi South 4.6 mph - N/A   Clear
8:54 PM 81.0 °F 86.7 °F 75.0 °F 82% 30.00 in 9.0 mi Calm Calm - N/A   Clear
9:54 PM 80.1 °F 85.4 °F 75.9 °F 87% 30.01 in 10.0 mi South 6.9 mph - N/A   Partly Cloudy
10:54 PM 78.1 °F - 73.0 °F 84% 30.03 in 10.0 mi SSW 6.9 mph - N/A   Clear
11:54 PM 77.0 °F - 73.9 °F 90% 30.04 in 10.0 mi SSW 4.6 mph - N/A   Clear